When you browse on this site, cookies collect data to enhance your experience and personalize the content and advertising you see.
Visit our Privacy Policy to learn more. By continuing to use the site, you agree to this use of cookies and data.
  • In Hungary
  • List of Countries
  • For 7 days
  • Water Temperature
  • Weather Map
  • News
  • Weather Widgets
  • user-avatar
    Login

    Hourly Weather Bobolice

    Today, 13 November, Wednesday

    Time Temperature Precipitation Wind Pressure Humidity
    00:00 +6°C° 1 mm 1 mps 724 mmHg 98%
    01:00 +6°C° 1 mm 1 mps 724 mmHg 98%
    02:00 +6°C° 0.2 mm 1 mps 724 mmHg 98%
    03:00 +6°C° 0.2 mm 1 mps 724 mmHg 98%
    04:00 +7°C° 0.2 mm 1 mps 723 mmHg 98%
    05:00 +7°C° 0 mm 1 mps 723 mmHg 98%
    06:00 +7°C° 0 mm 1 mps 723 mmHg 98%
    07:00 +7°C° 0 mm 1 mps 723 mmHg 98%
    08:00 +7°C° 0.2 mm 1 mps 722 mmHg 97%
    09:00 +7°C° 0.2 mm 1 mps 722 mmHg 97%
    10:00 +7°C° 0.2 mm 1 mps 722 mmHg 97%
    11:00 +6°C° 1.4 mm 2 mps 722 mmHg 97%
    12:00 +6°C° 1.4 mm 2 mps 722 mmHg 97%
    13:00 +6°C° 1.4 mm 2 mps 722 mmHg 97%
    14:00 +6°C° 0.6 mm 2 mps 722 mmHg 96%
    15:00 +5°C° 0.6 mm 2 mps 722 mmHg 96%
    16:00 +5°C° 0.6 mm 2 mps 722 mmHg 96%
    17:00 +5°C° 1.3 mm 2 mps 722 mmHg 96%
    18:00 +5°C° 1.3 mm 2 mps 722 mmHg 96%
    19:00 +5°C° 1.3 mm 2 mps 722 mmHg 97%
    20:00 +4°C° 2.2 mm 3 mps 723 mmHg 96%
    21:00 +4°C° 2.2 mm 3 mps 723 mmHg 96%
    22:00 +3°C° 2.2 mm 3 mps 723 mmHg 96%
    23:00 +3°C° 0.5 mm 3 mps 724 mmHg 95%

    Tomorrow, 14 November, Thursday

    Time Temperature Precipitation Wind Pressure Humidity
    00:00 +3°C° 0.5 mm 3 mps 724 mmHg 95%
    01:00 +3°C° 0.5 mm 3 mps 725 mmHg 94%
    02:00 +2°C° 0.2 mm 3 mps 725 mmHg 94%
    03:00 +2°C° 0.2 mm 3 mps 726 mmHg 93%
    04:00 +2°C° 0.2 mm 3 mps 726 mmHg 93%
    05:00 +3°C° 0 mm 2 mps 726 mmHg 92%
    06:00 +3°C° 0 mm 1 mps 727 mmHg 92%
    07:00 +3°C° 0 mm 1 mps 727 mmHg 91%
    08:00 +4°C° 0 mm 1 mps 728 mmHg 87%
    09:00 +5°C° 0 mm 1 mps 728 mmHg 83%
    10:00 +5°C° 0 mm 1 mps 728 mmHg 78%
    11:00 +6°C° 0 mm 1 mps 729 mmHg 76%
    12:00 +6°C° 0 mm 2 mps 729 mmHg 74%
    13:00 +6°C° 0 mm 2 mps 729 mmHg 72%
    14:00 +6°C° 0 mm 2 mps 729 mmHg 77%
    15:00 +5°C° 0 mm 2 mps 728 mmHg 81%
    16:00 +5°C° 0 mm 2 mps 728 mmHg 86%
    17:00 +6°C° 0 mm 1 mps 728 mmHg 87%
    18:00 +6°C° 0 mm 1 mps 728 mmHg 87%
    19:00 +6°C° 0 mm 1 mps 728 mmHg 88%
    20:00 +5°C° 0 mm 1 mps 728 mmHg 90%
    21:00 +5°C° 0 mm 1 mps 728 mmHg 92%
    22:00 +4°C° 0 mm 2 mps 728 mmHg 94%
    23:00 +4°C° 0 mm 2 mps 727 mmHg 94%

    Day after tomorrow, 15 November, Friday

    Time Temperature Precipitation Wind Pressure Humidity
    00:00 +4°C° 0 mm 2 mps 727 mmHg 94%
    01:00 +4°C° 0 mm 2 mps 727 mmHg 93%
    02:00 +4°C° 0 mm 3 mps 727 mmHg 92%
    03:00 +4°C° 0 mm 3 mps 727 mmHg 91%
    04:00 +5°C° 0 mm 4 mps 726 mmHg 89%
    05:00 +5°C° 0 mm 4 mps 727 mmHg 88%
    06:00 +5°C° 0 mm 4 mps 727 mmHg 87%
    07:00 +6°C° 0 mm 4 mps 727 mmHg 86%
    08:00 +8°C° 0 mm 5 mps 726 mmHg 82%
    09:00 +10°C° 0 mm 6 mps 726 mmHg 78%
    10:00 +11°C° 0 mm 6 mps 726 mmHg 73%
    11:00 +13°C° 0 mm 6 mps 726 mmHg 71%
    12:00 +13°C° 0 mm 5 mps 726 mmHg 69%
    13:00 +14°C° 0 mm 5 mps 726 mmHg 67%
    14:00 +13°C° 0 mm 5 mps 726 mmHg 69%
    15:00 +12°C° 0 mm 5 mps 726 mmHg 72%
    16:00 +12°C° 0 mm 5 mps 726 mmHg 75%
    17:00 +10°C° 0 mm 5 mps 727 mmHg 77%
    18:00 +10°C° 0 mm 5 mps 727 mmHg 79%
    19:00 +10°C° 0 mm 5 mps 727 mmHg 81%
    20:00 +10°C° 0 mm 5 mps 727 mmHg 81%
    21:00 +9°C° 0 mm 5 mps 727 mmHg 82%
    22:00 +10°C° 0 mm 4 mps 727 mmHg 82%
    23:00 +10°C° 0 mm 4 mps 727 mmHg 82%

    16 November, Saturday

    Time Temperature Precipitation Wind Pressure Humidity
    00:00 +10°C° 0 mm 4 mps 727 mmHg 82%
    01:00 +10°C° 0 mm 4 mps 727 mmHg 82%
    02:00 +9°C° 0 mm 5 mps 727 mmHg 82%
    03:00 +9°C° 0 mm 6 mps 727 mmHg 82%
    04:00 +9°C° 0 mm 6 mps 727 mmHg 82%
    05:00 +9°C° 0 mm 5 mps 728 mmHg 83%
    06:00 +9°C° 0 mm 5 mps 728 mmHg 84%
    07:00 +10°C° 0 mm 4 mps 729 mmHg 84%
    08:00 +10°C° 0 mm 3 mps 729 mmHg 83%
    09:00 +10°C° 0 mm 3 mps 730 mmHg 82%
    10:00 +12°C° 0 mm 2 mps 731 mmHg 81%
    11:00 +12°C° 0 mm 2 mps 731 mmHg 78%
    12:00 +12°C° 0 mm 2 mps 732 mmHg 76%
    13:00 +12°C° 0 mm 2 mps 732 mmHg 73%
    14:00 +12°C° 0 mm 2 mps 732 mmHg 75%
    15:00 +11°C° 0 mm 1 mps 732 mmHg 78%
    16:00 +10°C° 0 mm 1 mps 733 mmHg 80%
    17:00 +10°C° 0 mm 1 mps 733 mmHg 82%
    18:00 +9°C° 0 mm 1 mps 733 mmHg 84%
    19:00 +9°C° 0 mm 1 mps 733 mmHg 86%
    20:00 +9°C° 0 mm 1 mps 733 mmHg 86%
    21:00 +9°C° 0 mm 1 mps 733 mmHg 87%
    22:00 +10°C° 0 mm 1 mps 733 mmHg 87%
    23:00 +10°C° 0 mm 1 mps 733 mmHg 88%

    17 November, Sunday

    Time Temperature Precipitation Wind Pressure Humidity
    00:00 +9°C° 0 mm 1 mps 733 mmHg 89%
    01:00 +9°C° 0 mm 1 mps 732 mmHg 90%
    02:00 +9°C° 0 mm 1 mps 732 mmHg 91%
    03:00 +9°C° 0 mm 1 mps 731 mmHg 91%
    04:00 +9°C° 0 mm 1 mps 731 mmHg 91%
    05:00 +9°C° 0 mm 1 mps 731 mmHg 90%
    06:00 +9°C° 0 mm 1 mps 730 mmHg 89%
    07:00 +9°C° 0 mm 2 mps 730 mmHg 89%
    08:00 +10°C° 0 mm 2 mps 730 mmHg 84%
    09:00 +11°C° 0 mm 3 mps 730 mmHg 80%
    10:00 +12°C° 0 mm 3 mps 730 mmHg 75%
    11:00 +12°C° 0 mm 4 mps 730 mmHg 74%
    12:00 +13°C° 0 mm 4 mps 729 mmHg 72%
    13:00 +13°C° 0 mm 4 mps 729 mmHg 70%
    14:00 +12°C° 0 mm 4 mps 729 mmHg 75%
    15:00 +11°C° 0 mm 3 mps 729 mmHg 79%
    16:00 +10°C° 0 mm 2 mps 729 mmHg 83%
    17:00 +10°C° 0 mm 2 mps 729 mmHg 84%
    18:00 +9°C° 0 mm 2 mps 729 mmHg 86%
    19:00 +9°C° 0 mm 2 mps 729 mmHg 87%
    20:00 +9°C° 0 mm 2 mps 729 mmHg 87%
    21:00 +9°C° 0 mm 2 mps 729 mmHg 87%
    22:00 +8°C° 0 mm 2 mps 729 mmHg 86%
    23:00 +8°C° 0 mm 3 mps 729 mmHg 86%

    18 November, Monday

    Time Temperature Precipitation Wind Pressure Humidity
    00:00 +8°C° 0 mm 3 mps 728 mmHg 85%
    01:00 +8°C° 0 mm 3 mps 728 mmHg 84%
    02:00 +7°C° 0 mm 4 mps 728 mmHg 83%
    03:00 +8°C° 0 mm 4 mps 728 mmHg 82%
    04:00 +8°C° 0 mm 4 mps 728 mmHg 81%
    05:00 +8°C° 0 mm 4 mps 728 mmHg 81%
    06:00 +7°C° 0 mm 4 mps 728 mmHg 81%
    07:00 +8°C° 0 mm 3 mps 728 mmHg 82%
    08:00 +8°C° 0 mm 4 mps 728 mmHg 79%
    09:00 +10°C° 0 mm 4 mps 728 mmHg 77%
    10:00 +9°C° 0 mm 5 mps 729 mmHg 75%
    11:00 +10°C° 0 mm 5 mps 729 mmHg 74%
    12:00 +11°C° 0 mm 4 mps 729 mmHg 73%
    13:00 +11°C° 0 mm 4 mps 729 mmHg 72%
    14:00 +11°C° 0 mm 4 mps 729 mmHg 74%
    15:00 +10°C° 0 mm 3 mps 729 mmHg 76%
    16:00 +10°C° 0 mm 3 mps 729 mmHg 78%
    17:00 +10°C° 0 mm 3 mps 730 mmHg 78%
    18:00 +10°C° 0 mm 3 mps 730 mmHg 79%
    19:00 +10°C° 0 mm 3 mps 730 mmHg 79%
    20:00 +9°C° 0 mm 3 mps 731 mmHg 81%
    21:00 +9°C° 0 mm 3 mps 731 mmHg 82%
    22:00 +8°C° 0 mm 4 mps 732 mmHg 83%
    23:00 +8°C° 0 mm 3 mps 732 mmHg 85%
    Show more